This is the latest recevied weather packets stored in our database for station/object WX7EM. If no packets are shown the sender has not sent any weather packets the latest 10 day(s).
| Time | Temp. | Humidity | Pressure | Rain* | Wind** | Luminosity | Snow |
|---|---|---|---|---|---|---|---|
| 1777876594 | 17.22° C | 71% | 1008.6 hPa | 0 mm | - | 0 W/m² | - |
| 1777876291 | 17.78° C | 70% | 1008.7 hPa | 0 mm | - | 0 W/m² | - |
| 1777875987 | 17.78° C | 67% | 1008.6 hPa | 0 mm | - | 0 W/m² | - |
| 1777875683 | 18.33° C | 65% | 1008.5 hPa | 0 mm | - | 0 W/m² | - |
| 1777875380 | 18.89° C | 64% | 1008.6 hPa | 0 mm | - | 0 W/m² | - |
| 1777875076 | 18.33° C | 61% | 1008.7 hPa | 0 mm | - | 0 W/m² | - |
| 1777874774 | 18.33° C | 64% | 1008.6 hPa | 0 mm | - | 0 W/m² | - |
| 1777874469 | 18.89° C | 62% | 1008.6 hPa | 0 mm | - | 0 W/m² | - |
| 1777874167 | 19.44° C | 61% | 1008.4 hPa | 0 mm | - | 0 W/m² | - |
| 1777873864 | 19.44° C | 61% | 1008.4 hPa | 0 mm | - | 0 W/m² | - |
| 1777873560 | 19.44° C | 61% | 1008.4 hPa | 0 mm | - | 0 W/m² | - |
| 1777873258 | 20° C | 61% | 1008.3 hPa | 0 mm | - | 0 W/m² | - |
| 1777872954 | 20° C | 59% | 1008.1 hPa | 0 mm | - | 0 W/m² | - |
| 1777872652 | 20° C | 59% | 1008.1 hPa | 0 mm | - | 0 W/m² | - |
| 1777872349 | 20.56° C | 61% | 1007.9 hPa | 0 mm | - | 0 W/m² | - |
| 1777872047 | 20.56° C | 61% | 1007.7 hPa | 0 mm | - | 0 W/m² | - |
| 1777871743 | 20.56° C | 61% | 1007.6 hPa | 0 mm | - | 0 W/m² | - |
| 1777871440 | 20.56° C | 63% | 1007.3 hPa | 0 mm | - | 0 W/m² | - |
| 1777871137 | 20.56° C | 62% | 1007.3 hPa | 0 mm | - | 0 W/m² | - |
| 1777870834 | 21.11° C | 62% | 1007.3 hPa | 0 mm | - | 0 W/m² | - |
| 1777870531 | 21.67° C | 62% | 1007.5 hPa | 0 mm | - | 0 W/m² | - |
| 1777870226 | 21.67° C | 62% | 1007.2 hPa | 0 mm | - | 0 W/m² | - |
| 1777869924 | 22.22° C | 60% | 1007.1 hPa | 0 mm | - | 0 W/m² | - |
| 1777869621 | 22.22° C | 61% | 1007.2 hPa | 0 mm | - | 0 W/m² | - |
| 1777869318 | 22.22° C | 61% | 1006.9 hPa | 0 mm | - | 0 W/m² | - |
* Rain latest hour (hover to see other rain measurements)
** Current wind speed in m/s (hover to see current wind gust speed)